This demonstration page uses our WeatherBlox Daily Observations layout. Learn more.

Left ArrowRight Arrow

30.21309, -93.2044

Hourly Observations for August 11, 2022

Temp ( °F °C ) Dew Point ( °F °C ) Humidity (%) Winds ( mph kmh ) Pressure ( in mb ) Visibility ( mi km ) Precip ( " mm )
12:15 am 00:15 Clear with Mist and Fog 74 23.1 72 22 94 94 E 5 7 30.05 1018 5 8 0.00 0.00
12:35 am 00:35 Clear with Mist and Fog 74 23.4 72 22.4 94 94 E 3 6 30.04 1017 5 8 0.00 0.00
12:55 am 00:55 Clear with Mist and Fog 74 23.6 73 22.6 94 94 ENE 3 6 30.04 1017 5 8 0.00 0.00
1:15 am 01:15 Clear with Mist and Fog 74 23.5 73 22.5 94 94 Calm 30.04 1017 4 6 0.00 0.00
1:35 am 01:35 Clear with Mist and Fog 74 23.4 73 22.5 95 95 Calm 30.04 1017 5 8 0.00 0.00
1:55 am 01:55 Clear with Mist and Fog 74 23.5 73 22.6 95 95 Calm 30.04 1017 7 11 0.00 0.00
2:15 am 02:15 Clear 74 23.5 73 22.6 95 95 Calm 30.03 1017 7 11 0.00 0.00
2:35 am 02:35 Clear 74 23.4 73 22.5 95 95 Calm 30.03 1017 7 11 0.00 0.00
3:15 am 03:15 Clear with Mist and Fog 74 23.6 73 22.7 95 95 NE 3 6 30.02 1017 7 11 0.00 0.00
3:35 am 03:35 Clear with Mist and Fog 74 23.5 73 22.7 95 95 NE 3 6 30.02 1017 7 11 0.00 0.00
3:55 am 03:55 Partly Cloudy with Mist and Fog 74 23.6 73 22.7 95 95 ENE 3 6 30.01 1016 5 8 0.00 0.00
4:15 am 04:15 Partly Cloudy with Mist and Fog 74 23.4 73 22.5 95 95 ENE 3 6 30.00 1016 4 6 0.00 0.00
4:35 am 04:35 Cloudy with Mist and Fog 74 23.3 73 22.5 95 95 NE 5 7 30.01 1016 1 1 0.00 0.00
4:55 am 04:55 Cloudy with Mist and Fog 74 23.3 73 22.5 95 95 NE 3 6 30.01 1016 1 1 0.00 0.00
5:15 am 05:15 Cloudy with Fog 74 23.2 72 22.4 95 95 NE 3 6 30.01 1016 1 1 0.00 0.00
5:35 am 05:35 Cloudy with Mist and Fog 74 23.2 73 22.5 96 96 NNE 5 7 30.02 1017 1 1 0.00 0.00
6:00 am 06:00 Cloudy with Fog 73 23 72 22 94 94 ENE 5 7 30.01 1016 1 1 0.00 0.00
6:50 am 06:50 Partly Cloudy with Fog 73 23 73 23 100 100 ENE 5 7 30.01 1016 1 1 0.00 0.00
8:45 am 08:45 Cloudy with Mist and Fog 75 24 75 24 100 100 NE 8 13 30.03 1017 5 8 0.00 0.00
9:45 am 09:45 Cloudy 79 26 75 24 89 89 NE 8 13 30.03 1017 7 11 0.00 0.00
10:45 am 10:45 Mostly Cloudy 82 28 77 25 84 84 NE 7 11 30.04 1017 7 11 0.00 0.00
11:50 am 11:50 Mostly Cloudy 86 30 75 24 70 70 NNE 8 13 30.03 1017 10 16 0.00 0.00
12:53 pm 12:53 Mostly Cloudy 88 31 73 23 63 63 NNE 7 11 30.00 1016 10 16 0.00 0.00
1:51 pm 13:51 Mostly Cloudy with Showers 88 31 73 23 63 63 E 10 17 29.99 1016 10 16 0.00 0.00
2:52 pm 14:52 Mostly Cloudy 84 29 75 24 74 74 Calm 29.97 1015 10 16 0.00 0.00
3:45 pm 15:45 Partly Cloudy 81 27 75 24 84 84 S 10 17 29.97 1015 10 16 0.00 0.00
4:50 pm 16:50 Mostly Sunny 82 28 75 24 79 79 SSW 6 9 29.94 1014 10 16 0.00 0.00
5:47 pm 17:47 Mostly Sunny 84 29 73 23 70 70 S 7 11 29.93 1013 10 16 0.00 0.00
7:51 pm 19:51 Mostly Cloudy with Thunderstorms 77 25 73 23 89 89 ENE 6 9 29.96 1015 2 3 0.00 0.00
8:45 pm 20:45 Mostly Cloudy with Rain 75 24 75 24 100 100 Calm 29.97 1015 7 11 0.00 0.00
9:50 pm 21:50 Mostly Cloudy 77 25 75 24 94 94 Calm 29.99 1016 10 16 0.00 0.00
10:15 pm 22:15 Partly Cloudy 77 24.9 75 23.8 94 94 Calm 29.99 1016 10 16 0.00 0.00
10:35 pm 22:35 Partly Cloudy 76 24.7 75 23.7 94 94 E 3 6 29.99 1016 10 16 0.00 0.00
10:55 pm 22:55 Clear 76 24.3 74 23.3 94 94 E 5 7 29.99 1016 10 16 0.00 0.00
11:15 pm 23:15 Clear 76 24.4 74 23.4 94 94 Calm 29.99 1016 10 16 0.00 0.00
11:35 pm 23:35 Clear 76 24.2 74 23.2 94 94 Calm 30.00 1016 10 16 0.00 0.00
11:55 pm 23:55 Clear 76 24.3 74 23.3 94 94 Calm 30.01 1016 10 16 0.00 0.00

Powered by AerisWeather